Location: Home
(42.5358°N, 72.7383°W)
Time: 18:00:53
(UTC-05:00)

Tiros 1 - Pass Details

Date: 06 December 2021
Orbit: 629 x 664 km, 48.4° (Epoch: 18 January)

Event Time Altitude Azimuth Distance (km) Brightness Sun altitude
Rises 21:12:32 0° 292° (WNW) 2,938 - -53.1°
Reaches altitude 10° 21:14:56 10° 298° (WNW) 2,034 - -53.5°
Maximum altitude 21:19:28 48° 14° (NNE) 844 - -54.3°
Drops below altitude 10° 21:24:03 10° 89° (E) 2,052 - -55.1°
Sets 21:26:29 0° 95° (E) 2,968 - -55.5°
